DW9439 Weather Reports


Display with metric or nautical units.
time (UTC)temp
F
wind
direction
speed
MPH
gust
MPH
rain 1hr
in
rain 24hr
in
rain mn
in
humidity
%
barometer
mb
20260831110237 62 17 0.0 0.0 0.00 0.00 0.00 85 1017.5
20260831105940 63 17 0.0 1.0 0.00 0.00 0.00 85 1017.5
20260831105627 63 17 0.0 1.0 0.00 0.00 0.00 85 1017.5
20260831105317 63 17 0.0 0.0 0.00 0.00 0.00 85 1017.5
20260831105018 63 17 0.0 1.0 0.00 0.00 0.00 84 1017.5
20260831104713 63 17 0.0 1.0 0.00 0.00 0.00 84 1017.5
20260831103958 63 17 0.0 0.0 0.00 0.00 0.00 83 1017.4
20260831103702 63 17 0.0 1.0 0.00 0.00 0.00 82 1017.3
20260831103358 64 17 0.0 1.0 0.00 0.00 0.00 82 1017.2
20260831102642 64 17 0.0 1.0 0.00 0.00 0.00 82 1017.1
20260831102333 65 17 0.0 0.0 0.00 0.00 0.00 82 1017.1
20260831102028 65 17 0.0 0.0 0.00 0.00 0.00 81 1017.1
20260831101719 65 17 0.0 0.0 0.00 0.00 0.00 81 1017.0
20260831101405 65 17 0.0 0.0 0.00 0.00 0.00 81 1017.0
20260831101100 65 17 0.0 0.0 0.00 0.00 0.00 81 1017.0
20260831100753 65 17 0.0 0.0 0.00 0.00 0.00 81 1017.1
20260831100447 66 17 0.0 0.0 0.00 0.00 0.00 81 1017.0
20260831100145 66 17 0.0 2.0 0.00 0.00 0.00 81 1017.1
20260831095843 66 17 0.0 2.0 0.00 0.00 0.00 81 1016.9
20260831095533 66 17 0.0 2.0 0.00 0.00 0.00 81 1016.9
20260831095222 66 17 0.0 2.0 0.00 0.00 0.00 80 1016.8
20260831094920 66 17 0.0 4.0 0.00 0.00 0.00 80 1016.8
20260831094618 66 17 0.0 4.0 0.00 0.00 0.00 80 1016.7
20260831094308 66 17 1.0 4.0 0.00 0.00 0.00 79 1016.9
20260831093549 67 17 1.0 4.0 0.00 0.00 0.00 79 1016.7
20260831093241 67 17 0.0 4.0 0.00 0.00 0.00 79 1016.6
20260831092941 67 17 0.0 3.0 0.00 0.00 0.00 79 1016.6
20260831091757 68 17 2.0 4.0 0.00 0.00 0.00 79 1016.6
20260831091453 68 17 2.0 5.0 0.00 0.00 0.00 78 1016.6
20260831091154 68 17 2.0 5.0 0.00 0.00 0.00 78 1016.7
20260831090841 68 17 2.0 5.0 0.00 0.00 0.00 77 1017.0
20260831090535 68 17 2.0 5.0 0.00 0.00 0.00 77 1017.0
20260831085816 69 17 3.0 6.0 0.00 0.00 0.00 77 1017.2
20260831085509 69 17 3.0 7.0 0.00 0.00 0.00 76 1017.3
20260831085157 69 17 4.0 7.0 0.00 0.00 0.00 76 1017.3
20260831084420 69 17 4.0 8.0 0.00 0.00 0.00 75 1017.3
20260831084121 69 17 4.0 8.0 0.00 0.00 0.00 75 1017.6
20260831083809 69 17 5.0 8.0 0.00 0.00 0.00 75 1017.7
20260831083455 70 17 5.0 11.0 0.00 0.00 0.00 74 1017.6
20260831082732 70 17 6.0 11.0 0.00 0.00 0.00 73 1017.7
20260831082433 70 17 7.0 11.0 0.00 0.00 0.00 73 1017.6
20260831082127 70 17 7.0 11.0 0.00 0.00 0.00 73 1017.8
20260831081829 71 15 7.0 11.0 0.00 0.00 0.00 72 1017.7
20260831081519 71 20 6.0 11.0 0.00 0.00 0.00 72 1017.9
20260831081223 71 21 7.0 14.0 0.00 0.00 0.00 71 1017.9
20260831080924 71 22 8.0 14.0 0.00 0.00 0.00 71 1018.2
20260831080624 71 21 9.0 14.0 0.00 0.00 0.00 72 1018.2
20260831080325 71 15 9.0 17.0 0.00 0.00 0.00 72 1018.3
20260831080014 71 17 8.0 17.0 0.00 0.00 0.00 71 1018.3
20260831075712 71 18 9.0 17.0 0.00 0.00 0.00 71 1018.3
20260831075414 71 20 10.0 17.0 0.00 0.00 0.00 71 1018.3
20260831075108 71 17 10.0 17.0 0.00 0.00 0.00 70 1018.4
20260831074756 71 17 10.0 17.0 0.00 0.00 0.00 70 1018.1
20260831074037 72 40 9.0 15.0 0.00 0.00 0.00 68 1017.8
20260831073729 72 37 9.0 23.0 0.00 0.00 0.00 68 1017.6
20260831073427 72 38 10.0 23.0 0.00 0.00 0.00 68 1017.6
20260831073118 72 38 12.0 23.0 0.00 0.00 0.00 68 1017.5
20260831072356 72 38 14.0 23.0 0.00 0.00 0.00 68 1017.3
20260831072049 72 21 13.0 23.0 0.00 0.00 0.00 69 1017.3
20260831071319 72 17 11.0 19.0 0.00 0.00 0.00 69 1017.5
20260831071020 72 19 10.0 19.0 0.00 0.00 0.00 69 1017.5
20260831070708 72 32 9.0 17.0 0.00 0.00 0.00 70 1017.5
20260831070403 72 26 9.0 17.0 0.00 0.00 0.00 70 1017.5
20260831065648 72 40 12.0 18.0 0.00 0.00 0.00 70 1017.8
20260831065345 72 22 12.0 18.0 0.00 0.00 0.00 70 1017.9
20260831065034 72 13 12.0 27.0 0.00 0.00 0.00 70 1018.0
20260831064735 72 9 11.0 27.0 0.00 0.00 0.00 70 1018.0
20260831064006 72 341 13.0 27.0 0.00 0.00 0.00 70 1018.2
20260831063709 72 327 15.0 27.0 0.00 0.00 0.00 70 1018.3
20260831063410 73 342 15.0 27.0 0.00 0.00 0.00 70 1018.4
20260831062656 74 296 10.0 25.0 0.00 0.00 0.00 65 1018.3
20260831062350 74 323 9.0 14.0 0.00 0.00 0.00 62 1018.0
20260831062050 74 11 9.0 14.0 0.00 0.00 0.00 61 1017.4
20260831061747 74 15 8.0 14.0 0.00 0.00 0.00 62 1017.0
20260831061441 74 22 8.0 11.0 0.00 0.00 0.00 62 1016.7
20260831061128 74 23 8.0 12.0 0.00 0.00 0.00 62 1016.6
20260831060822 74 24 8.0 12.0 0.00 0.00 0.00 62 1016.5
20260831060515 74 23 8.0 12.0 0.00 0.00 0.00 62 1016.4
20260831055747 75 22 7.0 12.0 0.00 0.00 0.00 62 1016.4
20260831055436 75 22 8.0 12.0 0.00 0.00 0.00 61 1016.4
20260831055129 75 22 7.0 11.0 0.00 0.00 0.00 61 1016.4
20260831054405 75 17 7.0 11.0 0.00 0.00 0.00 61 1016.3
20260831054059 75 15 8.0 11.0 0.00 0.00 0.00 61 1016.3
20260831053331 75 13 7.0 11.0 0.00 0.00 0.00 61 1016.6
20260831053025 75 12 7.0 10.0 0.00 0.00 0.00 61 1016.7
20260831052724 75 11 6.0 10.0 0.00 0.00 0.00 61 1016.6
20260831052427 75 5 5.0 9.0 0.00 0.00 0.00 61 1016.5
20260831052126 75 5 4.0 8.0 0.00 0.00 0.00 61 1016.5
20260831051400 75 0 4.0 6.0 0.00 0.00 0.00 62 1016.7
20260831051053 75 0 3.0 6.0 0.00 0.00 0.00 61 1016.8
20260831050327 75 0 1.0 5.0 0.00 0.00 0.00 62 1017.1
20260831050023 76 0 1.0 5.0 0.00 0.00 0.00 62 1017.2
20260831045711 76 0 1.0 5.0 0.00 0.00 0.00 61 1017.3
20260831045407 76 0 1.0 5.0 0.00 0.00 0.00 61 1017.4
20260831045110 76 0 0.0 5.0 0.00 0.00 0.00 61 1017.7
20260831044810 76 0 1.0 5.0 0.00 0.00 0.00 61 1017.6
20260831044036 76 0 1.0 5.0 0.00 0.00 0.00 59 1017.8
20260831043728 76 0 0.0 4.0 0.00 0.00 0.00 59 1017.8
20260831042954 76 0 0.0 5.0 0.00 0.00 0.00 58 1017.6
20260831042649 76 0 1.0 5.0 0.00 0.00 0.00 58 1017.6
20260831042337 76 0 2.0 6.0 0.00 0.00 0.00 58 1017.5
20260831042036 76 0 3.0 6.0 0.00 0.00 0.00 58 1017.3
20260831041731 76 0 3.0 6.0 0.00 0.00 0.00 57 1017.1
20260831040702 77 0 5.0 8.0 0.00 0.00 0.00 56 1016.5
20260831040355 77 0 4.0 9.0 0.00 0.00 0.00 55 1016.3
20260831040044 77 0 3.0 9.0 0.00 0.00 0.00 55 1016.3
20260831035746 77 0 3.0 9.0 0.00 0.00 0.00 54 1016.4
20260831035447 78 0 4.0 10.0 0.00 0.00 0.00 54 1016.4
20260831034714 78 0 6.0 10.0 0.00 0.00 0.00 53 1016.2
20260831033948 79 0 9.0 19.0 0.00 0.00 0.00 52 1015.8
20260831033652 79 0 10.0 19.0 0.00 0.00 0.00 52 1015.9
20260831033349 79 0 11.0 20.0 0.00 0.00 0.00 51 1015.9
20260831033048 79 5 12.0 20.0 0.00 0.00 0.00 51 1015.6
20260831032749 80 5 13.0 20.0 0.00 0.00 0.00 50 1015.5
20260831032437 80 5 13.0 20.0 0.00 0.00 0.00 49 1015.6
20260831032125 81 0 12.0 20.0 0.00 0.00 0.00 48 1015.6
20260831031828 82 344 12.0 20.0 0.00 0.00 0.00 48 1015.4
20260831031053 82 0 10.0 20.0 0.00 0.00 0.00 49 1014.8
20260831030747 82 5 8.0 20.0 0.00 0.00 0.00 52 1014.5
20260831030438 81 5 7.0 20.0 0.00 0.00 0.00 52 1014.2
20260831030126 82 317 5.0 11.0 0.00 0.00 0.00 54 1013.5
20260831025822 82 312 4.0 8.0 0.00 0.00 0.00 53 1013.6
20260831025514 82 311 4.0 7.0 0.00 0.00 0.00 53 1014.1
20260831024339 82 311 3.0 5.0 0.00 0.00 0.00 53 1014.4
20260831024040 82 311 3.0 6.0 0.00 0.00 0.00 53 1014.5
20260831023741 82 311 3.0 6.0 0.00 0.00 0.00 53 1014.4
20260831023445 82 311 4.0 6.0 0.00 0.00 0.00 53 1014.5
20260831022716 82 312 4.0 7.0 0.00 0.00 0.00 52 1014.2
20260831022420 82 311 4.0 7.0 0.00 0.00 0.00 52 1014.2
20260831022117 82 311 4.0 7.0 0.00 0.00 0.00 52 1014.2
20260831021806 83 311 4.0 7.0 0.00 0.00 0.00 52 1014.3
20260831021503 83 311 4.0 7.0 0.00 0.00 0.00 51 1014.3
20260831020747 83 311 4.0 5.0 0.00 0.00 0.00 50 1014.4
20260831020433 84 311 4.0 10.0 0.00 0.00 0.00 50 1014.3
20260831020122 84 311 4.0 10.0 0.00 0.00 0.00 50 1014.1
20260831015818 84 311 4.0 10.0 0.00 0.00 0.00 49 1014.1
20260831015512 85 311 4.0 10.0 0.00 0.00 0.00 49 1014.0
20260831015211 85 311 5.0 10.0 0.00 0.00 0.00 49 1013.8
20260831014434 85 309 6.0 10.0 0.00 0.00 0.00 49 1013.7
20260831014124 85 304 6.0 10.0 0.00 0.00 0.00 48 1013.7
20260831013817 85 304 6.0 10.0 0.00 0.00 0.00 48 1013.8
20260831013505 85 302 7.0 10.0 0.00 0.00 0.00 48 1013.8
20260831013156 86 298 7.0 10.0 0.00 0.00 0.00 48 1013.7
20260831012900 86 297 7.0 10.0 0.00 0.00 0.00 48 1013.8
20260831012601 86 294 7.0 10.0 0.00 0.00 0.00 47 1013.8
20260831012247 87 292 7.0 10.0 0.00 0.00 0.00 46 1013.8
20260831011946 87 286 7.0 10.0 0.00 0.00 0.00 45 1013.8
20260831011216 88 273 6.0 9.0 0.00 0.00 0.00 43 1013.8
20260831010445 89 248 4.0 7.0 0.00 0.00 0.00 41 1014.0
20260831010134 89 248 4.0 6.0 0.00 0.00 0.00 40 1013.8
20260831005826 89 248 3.0 6.0 0.00 0.00 0.00 40 1013.8
20260831005103 90 248 2.0 5.0 0.00 0.00 0.00 39 1013.6
20260831004759 90 247 2.0 4.0 0.00 0.00 0.00 38 1013.6
20260831004501 91 247 2.0 4.0 0.00 0.00 0.00 38 1013.5
20260831003737 91 248 2.0 5.0 0.00 0.00 0.00 37 1013.3
20260831003439 91 247 3.0 5.0 0.00 0.00 0.00 37 1013.3
20260831002714 92 248 3.0 6.0 0.00 0.00 0.00 36 1013.3
20260831001953 92 248 4.0 6.0 0.00 0.00 0.00 36 1013.2
20260831001653 93 247 4.0 6.0 0.00 0.00 0.00 35 1013.1
20260831001355 93 248 4.0 8.0 0.00 0.00 0.00 35 1013.1
20260831001051 93 247 4.0 8.0 0.00 0.00 0.00 35 1013.2
20260831000746 94 248 3.0 8.0 0.00 0.00 0.00 35 1013.2
20260831000450 94 248 4.0 8.0 0.00 0.00 0.00 34 1013.3
20260831000152 94 248 4.0 8.0 0.00 0.00 0.00 33 1013.2
20260830235852 95 248 4.0 8.0 0.00 0.00 0.00 33 1013.2
20260830235548 95 248 4.0 8.0 0.00 0.00 0.00 33 1013.3
20260830235243 96 248 4.0 7.0 0.00 0.00 0.00 33 1013.3
20260830234945 96 248 5.0 8.0 0.00 0.00 0.00 33 1013.3
20260830234635 96 248 5.0 8.0 0.00 0.00 0.00 34 1013.3
20260830234332 96 248 5.0 8.0 0.00 0.00 0.00 34 1013.3
20260830234023 97 249 5.0 8.0 0.00 0.00 0.00 33 1013.2
20260830233714 97 250 3.0 8.0 0.00 0.00 0.00 32 1013.2
20260830233408 98 250 2.0 8.0 0.00 0.00 0.00 31 1013.2
20260830232632 98 250 0.0 1.0 0.00 0.00 0.00 28 1013.1
20260830232321 98 250 0.0 1.0 0.00 0.00 0.00 28 1013.0
20260830232011 98 250 0.0 0.0 0.00 0.00 0.00 28 1013.1
20260830231706 98 250 0.0 0.0 0.00 0.00 0.00 29 1013.0
20260830230943 98 250 0.0 0.0 0.00 0.00 0.00 29 1012.8
20260830230645 97 250 0.0 4.0 0.00 0.00 0.00 29 1012.9
20260830230340 97 250 0.0 8.0 0.00 0.00 0.00 27 1012.9
20260830230038 97 250 0.0 8.0 0.00 0.00 0.00 27 1012.9
20260830225742 97 250 0.0 8.0 0.00 0.00 0.00 28 1012.9
20260830225442 97 250 0.0 3.0 0.00 0.00 0.00 28 1012.8
20260830224300 96 250 4.0 12.0 0.00 0.00 0.00 28 1013.0
20260830224003 97 250 5.0 12.0 0.00 0.00 0.00 28 1013.0
20260830223659 97 250 6.0 12.0 0.00 0.00 0.00 28 1013.0
20260830223359 96 250 6.0 12.0 0.00 0.00 0.00 29 1013.0
20260830223055 96 250 7.0 12.0 0.00 0.00 0.00 28 1013.0
20260830222746 97 252 6.0 12.0 0.00 0.00 0.00 28 1013.0
20260830222439 97 254 5.0 12.0 0.00 0.00 0.00 29 1013.1
20260830222137 97 268 5.0 10.0 0.00 0.00 0.00 29 1013.0
20260830221836 97 268 5.0 10.0 0.00 0.00 0.00 30 1013.0
20260830221534 97 268 5.0 10.0 0.00 0.00 0.00 29 1013.0
20260830220806 98 269 2.0 9.0 0.00 0.00 0.00 28 1013.1
20260830220457 98 269 2.0 9.0 0.00 0.00 0.00 28 1013.0
20260830220154 98 271 1.0 0.0 0.00 0.00 0.00 28 1013.1
20260830215841 98 271 2.0 9.0 0.00 0.00 0.00 28 1013.2
20260830215536 97 271 3.0 9.0 0.00 0.00 0.00 30 1013.1
20260830215226 97 271 3.0 9.0 0.00 0.00 0.00 29 1013.1
20260830214923 97 271 3.0 9.0 0.00 0.00 0.00 30 1013.2
20260830214617 97 274 3.0 9.0 0.00 0.00 0.00 28 1013.1
20260830214306 97 275 2.0 9.0 0.00 0.00 0.00 28 1013.2
20260830213954 97 275 2.0 7.0 0.00 0.00 0.00 29 1013.1
20260830213657 97 275 2.0 7.0 0.00 0.00 0.00 29 1013.2
20260830213344 96 275 3.0 12.0 0.00 0.00 0.00 31 1013.3
20260830213037 96 275 3.0 12.0 0.00 0.00 0.00 31 1013.3
20260830212740 96 275 4.0 12.0 0.00 0.00 0.00 31 1013.2
20260830212428 96 275 5.0 12.0 0.00 0.00 0.00 30 1013.3
20260830212121 96 275 5.0 12.0 0.00 0.00 0.00 30 1013.2
20260830211814 96 275 5.0 12.0 0.00 0.00 0.00 30 1013.3
20260830211512 96 275 5.0 12.0 0.00 0.00 0.00 29 1013.3
20260830211207 96 330 4.0 9.0 0.00 0.00 0.00 29 1013.3
20260830210902 96 330 5.0 9.0 0.00 0.00 0.00 30 1013.3
20260830210554 96 331 5.0 9.0 0.00 0.00 0.00 30 1013.2
20260830210248 96 331 4.0 9.0 0.00 0.00 0.00 29 1013.3
20260830205943 97 336 3.0 9.0 0.00 0.00 0.00 30 1013.3
20260830205635 97 346 2.0 10.0 0.00 0.00 0.00 30 1013.4
20260830205336 97 355 3.0 10.0 0.00 0.00 0.00 32 1013.4
20260830205034 97 355 4.0 10.0 0.00 0.00 0.00 31 1013.4
20260830204730 97 355 4.0 10.0 0.00 0.00 0.00 31 1013.3
20260830204424 97 355 4.0 10.0 0.00 0.00 0.00 32 1013.4
20260830203701 96 351 2.0 7.0 0.00 0.00 0.00 32 1013.4
20260830202936 96 351 2.0 8.0 0.00 0.00 0.00 33 1013.6
20260830202632 96 351 3.0 8.0 0.00 0.00 0.00 33 1013.7
20260830202335 96 350 3.0 8.0 0.00 0.00 0.00 34 1013.8
20260830202027 96 350 4.0 9.0 0.00 0.00 0.00 32 1013.8
20260830201729 96 350 5.0 9.0 0.00 0.00 0.00 33 1013.9
20260830201428 96 351 5.0 9.0 0.00 0.00 0.00 33 1013.9
20260830201117 95 351 5.0 10.0 0.00 0.00 0.00 34 1014.0
20260830200817 95 351 4.0 10.0 0.00 0.00 0.00 35 1013.9
20260830200508 95 350 4.0 10.0 0.00 0.00 0.00 36 1014.0
20260830200204 94 350 4.0 10.0 0.00 0.00 0.00 35 1014.0
20260830195901 95 350 5.0 10.0 0.00 0.00 0.00 36 1014.0
20260830195559 95 351 5.0 10.0 0.00 0.00 0.00 35 1014.0
20260830195304 94 350 4.0 10.0 0.00 0.00 0.00 36 1014.0
20260830194956 94 348 2.0 9.0 0.00 0.00 0.00 36 1013.9
20260830194647 94 348 2.0 8.0 0.00 0.00 0.00 36 1014.0
20260830194338 94 348 2.0 8.0 0.00 0.00 0.00 35 1014.0
20260830194034 93 348 3.0 8.0 0.00 0.00 0.00 35 1014.1
20260830193725 93 348 3.0 9.0 0.00 0.00 0.00 36 1014.1
20260830193413 93 348 4.0 9.0 0.00 0.00 0.00 37 1014.1
20260830193106 93 348 4.0 9.0 0.00 0.00 0.00 36 1014.1
20260830192803 93 347 3.0 10.0 0.00 0.00 0.00 38 1014.1
20260830192457 92 346 3.0 10.0 0.00 0.00 0.00 40 1014.1
20260830192146 92 346 2.0 10.0 0.00 0.00 0.00 38 1014.1
20260830191426 92 348 3.0 10.0 0.00 0.00 0.00 39 1014.3
20260830191118 92 348 3.0 10.0 0.00 0.00 0.00 39 1014.2
20260830190817 92 348 3.0 10.0 0.00 0.00 0.00 39 1014.1
20260830190515 91 344 2.0 8.0 0.00 0.00 0.00 40 1014.2
20260830190211 91 344 3.0 8.0 0.00 0.00 0.00 39 1014.2
20260830185907 91 344 3.0 9.0 0.00 0.00 0.00 41 1014.2
20260830185556 91 344 3.0 9.0 0.00 0.00 0.00 41 1014.2
20260830184825 91 344 4.0 10.0 0.00 0.00 0.00 39 1014.3
20260830184523 91 344 5.0 10.0 0.00 0.00 0.00 39 1014.3
20260830184219 91 344 5.0 10.0 0.00 0.00 0.00 39 1014.3
20260830183909 91 344 5.0 11.0 0.00 0.00 0.00 40 1014.3
20260830183612 91 344 4.0 11.0 0.00 0.00 0.00 39 1014.4
20260830183307 90 344 5.0 11.0 0.00 0.00 0.00 39 1014.4
20260830183011 90 344 5.0 11.0 0.00 0.00 0.00 40 1014.4
20260830182711 90 344 5.0 11.0 0.00 0.00 0.00 40 1014.5
20260830182412 90 343 6.0 11.0 0.00 0.00 0.00 41 1014.5
20260830182111 90 342 6.0 11.0 0.00 0.00 0.00 40 1014.6
20260830181800 90 338 5.0 10.0 0.00 0.00 0.00 41 1014.6
20260830181036 89 339 3.0 10.0 0.00 0.00 0.00 43 1014.7
20260830180316 89 340 4.0 8.0 0.00 0.00 0.00 45 1014.8
20260830175554 89 340 3.0 9.0 0.00 0.00 0.00 45 1014.9
20260830175252 88 340 3.0 9.0 0.00 0.00 0.00 46 1014.9
20260830174952 88 339 3.0 9.0 0.00 0.00 0.00 47 1015.0
20260830174648 88 340 4.0 9.0 0.00 0.00 0.00 46 1015.2
20260830174342 88 340 5.0 9.0 0.00 0.00 0.00 46 1015.2
20260830174036 87 339 5.0 9.0 0.00 0.00 0.00 47 1015.0
20260830173723 87 339 4.0 9.0 0.00 0.00 0.00 47 1015.3
20260830173418 87 339 4.0 9.0 0.00 0.00 0.00 48 1015.2
20260830173109 87 337 3.0 9.0 0.00 0.00 0.00 48 1015.3
20260830172804 87 337 4.0 9.0 0.00 0.00 0.00 48 1015.3
20260830172458 86 337 4.0 9.0 0.00 0.00 0.00 48 1015.2
20260830172149 86 336 4.0 8.0 0.00 0.00 0.00 50 1015.1
20260830171851 86 336 4.0 9.0 0.00 0.00 0.00 49 1015.0
20260830171540 86 336 4.0 9.0 0.00 0.00 0.00 50 1015.1
20260830171240 85 336 4.0 9.0 0.00 0.00 0.00 50 1015.2
20260830170941 85 336 4.0 9.0 0.00 0.00 0.00 50 1015.1
20260830170633 85 336 4.0 9.0 0.00 0.00 0.00 50 1015.1
20260830170319 85 336 5.0 9.0 0.00 0.00 0.00 50 1015.2
20260830170007 85 336 6.0 9.0 0.00 0.00 0.00 51 1015.3
20260830165700 85 336 5.0 10.0 0.00 0.00 0.00 51 1015.3
20260830165400 84 336 5.0 10.0 0.00 0.00 0.00 51 1015.4
20260830165047 85 335 5.0 10.0 0.00 0.00 0.00 51 1015.4
20260830164746 85 334 5.0 10.0 0.00 0.00 0.00 51 1015.4
20260830164440 85 334 5.0 10.0 0.00 0.00 0.00 50 1015.4
20260830163241 84 333 6.0 13.0 0.00 0.00 0.00 52 1015.3
20260830162516 84 329 6.0 13.0 0.00 0.00 0.00 52 1015.3
20260830162219 84 321 6.0 13.0 0.00 0.00 0.00 52 1015.2
20260830161500 84 313 5.0 13.0 0.00 0.00 0.00 53 1015.4
20260830160744 83 5 5.0 8.0 0.00 0.00 0.00 54 1015.3
20260830160437 82 5 4.0 8.0 0.00 0.00 0.00 55 1015.4
20260830160141 82 5 4.0 8.0 0.00 0.00 0.00 54 1015.3
20260830155830 82 5 4.0 8.0 0.00 0.00 0.00 55 1015.3
20260830155529 82 5 4.0 8.0 0.00 0.00 0.00 55 1015.0
20260830155216 81 5 4.0 8.0 0.00 0.00 0.00 56 1015.0
20260830154908 81 5 4.0 8.0 0.00 0.00 0.00 58 1015.0
20260830154557 80 5 4.0 7.0 0.00 0.00 0.00 57 1015.0
20260830154249 80 5 4.0 7.0 0.00 0.00 0.00 57 1014.9
20260830153942 80 5 4.0 7.0 0.00 0.00 0.00 57 1014.9
20260830153629 80 5 3.0 6.0 0.00 0.00 0.00 58 1014.9
20260830153332 79 5 3.0 6.0 0.00 0.00 0.00 58 1014.8
20260830153031 79 5 3.0 6.0 0.00 0.00 0.00 60 1014.8
20260830152259 79 5 4.0 7.0 0.00 0.00 0.00 59 1014.9
20260830152000 79 5 3.0 7.0 0.00 0.00 0.00 59 1014.9
20260830151659 78 5 3.0 7.0 0.00 0.00 0.00 60 1014.9
20260830151353 78 5 4.0 7.0 0.00 0.00 0.00 61 1015.0
20260830151041 77 5 4.0 7.0 0.00 0.00 0.00 63 1014.9
20260830150742 76 5 3.0 6.0 0.00 0.00 0.00 63 1014.9
20260830150432 76 5 3.0 6.0 0.00 0.00 0.00 63 1014.9
20260830150121 76 5 3.0 5.0 0.00 0.00 0.00 63 1014.9
20260830145808 75 5 3.0 5.0 0.00 0.00 0.00 64 1015.0
20260830145502 75 5 3.0 5.0 0.00 0.00 0.00 64 1015.0
20260830145151 75 5 3.0 5.0 0.00 0.00 0.00 65 1015.0
20260830144840 75 5 3.0 5.0 0.00 0.00 0.00 64 1014.9
20260830144126 74 5 3.0 7.0 0.00 0.00 0.00 65 1014.8
20260830143825 74 5 3.0 7.0 0.00 0.00 0.00 66 1014.8
20260830143525 74 5 4.0 7.0 0.00 0.00 0.00 66 1014.7
20260830143228 74 5 4.0 7.0 0.00 0.00 0.00 66 1014.6
20260830142928 74 5 4.0 7.0 0.00 0.00 0.00 66 1014.6
20260830142632 74 5 4.0 7.0 0.00 0.00 0.00 66 1014.7
20260830142321 73 5 4.0 7.0 0.00 0.00 0.00 66 1014.8
20260830141604 73 5 4.0 7.0 0.00 0.00 0.00 68 1015.0
20260830141303 72 5 4.0 6.0 0.00 0.00 0.00 68 1015.0
20260830140956 72 5 4.0 6.0 0.00 0.00 0.00 69 1014.9
20260830140649 72 5 3.0 6.0 0.00 0.00 0.00 70 1014.7
20260830140342 71 5 3.0 6.0 0.00 0.00 0.00 71 1014.6
20260830140044 71 5 3.0 6.0 0.00 0.00 0.00 72 1014.6
20260830135742 71 5 3.0 6.0 0.00 0.00 0.00 72 1014.6
20260830134553 70 5 2.0 4.0 0.00 0.00 0.00 73 1014.4
20260830134240 69 5 2.0 4.0 0.00 0.00 0.00 74 1014.5
20260830133928 69 5 2.0 4.0 0.00 0.00 0.00 75 1014.5
20260830133629 69 5 2.0 4.0 0.00 0.00 0.00 74 1014.4
20260830133327 69 5 2.0 4.0 0.00 0.00 0.00 74 1014.3
20260830133026 68 5 1.0 4.0 0.00 0.00 0.00 75 1014.2
20260830132721 68 5 1.0 4.0 0.00 0.00 0.00 75 1014.2
20260830132410 68 5 1.0 4.0 0.00 0.00 0.00 75 1014.3
20260830131651 68 5 2.0 5.0 0.00 0.00 0.00 76 1014.2
20260830131347 68 5 2.0 5.0 0.00 0.00 0.00 76 1014.2
20260830131037 68 5 2.0 5.0 0.00 0.00 0.00 76 1014.3
20260830130725 68 5 2.0 5.0 0.00 0.00 0.00 76 1014.2
20260830130418 67 5 2.0 5.0 0.00 0.00 0.00 77 1014.3
20260830130118 67 5 2.0 5.0 0.00 0.00 0.00 77 1014.2
20260830125806 67 5 2.0 5.0 0.00 0.00 0.00 77 1014.1
20260830125509 67 5 3.0 5.0 0.00 0.00 0.00 77 1014.1
20260830125156 67 5 3.0 5.0 0.00 0.00 0.00 77 1014.0
20260830124427 67 5 2.0 5.0 0.00 0.00 0.00 77 1014.2
20260830124126 67 5 3.0 5.0 0.00 0.00 0.00 77 1014.2
20260830123820 67 5 3.0 5.0 0.00 0.00 0.00 77 1014.0
20260830123514 67 5 3.0 5.0 0.00 0.00 0.00 78 1014.0
20260830123213 67 5 2.0 5.0 0.00 0.00 0.00 78 1013.9
20260830122916 67 5 2.0 5.0 0.00 0.00 0.00 78 1014.0
20260830122616 67 5 1.0 6.0 0.00 0.00 0.00 78 1014.1
20260830122310 67 5 2.0 6.0 0.00 0.00 0.00 78 1014.0
20260830122000 66 5 2.0 6.0 0.00 0.00 0.00 78 1014.0
20260830121703 66 5 3.0 6.0 0.00 0.00 0.00 78 1013.8
20260830120944 66 5 4.0 6.0 0.00 0.00 0.00 79 1013.9
20260830120645 66 5 4.0 6.0 0.00 0.00 0.00 79 1013.8
20260830120345 66 5 4.0 6.0 0.00 0.00 0.00 79 1013.7
20260830120035 66 5 4.0 6.0 0.00 0.00 0.00 79 1013.7
20260830115724 66 5 4.0 6.0 0.00 0.00 0.00 79 1013.7
20260830115426 66 5 4.0 6.0 0.00 0.00 0.00 79 1013.6
20260830115117 66 5 4.0 6.0 0.00 0.00 0.00 79 1013.6
20260830114345 66 5 4.0 5.0 0.00 0.00 0.00 79 1013.4
20260830114037 66 5 4.0 5.0 0.00 0.00 0.00 79 1013.4
20260830113732 66 5 3.0 5.0 0.00 0.00 0.00 79 1013.4
20260830113427 66 5 3.0 5.0 0.00 0.00 0.00 79 1013.4
20260830113116 66 5 3.0 5.0 0.00 0.00 0.00 79 1013.3
20260830112803 65 5 3.0 5.0 0.00 0.00 0.00 79 1013.2
20260830112458 65 5 3.0 5.0 0.00 0.00 0.00 79 1013.2
20260830112200 65 5 2.0 5.0 0.00 0.00 0.00 79 1013.3
20260830111856 65 5 2.0 5.0 0.00 0.00 0.00 79 1013.2
20260830111554 65 5 2.0 5.0 0.00 0.00 0.00 79 1013.4
20260830111255 65 5 2.0 6.0 0.00 0.00 0.00 79 1013.4
20260830110952 65 5 2.0 6.0 0.00 0.00 0.00 79 1013.4
20260830110645 65 5 3.0 6.0 0.00 0.00 0.00 79 1013.3